CHZ211 LLBG-EDDK

Flight info

Callsign CHZ211
Flight time N/A
Altitude 38000
Route SUVAS DCT STEPA L53 ANIDE UL53 PERIM DCT RIPLI DCT SIGFO DCT KOGIS DCT BITLA DCT BONZI DCT IL DCT LAK DCT PETOV DCT GOLVA DCT GRZ DCT RENKA DCT RUDNO DCT KULOK DCT VELIS DCT MASEK T841 ERNEP ERNEP1C
Aircraft B763/H-SDE3FGHIM3RWXY/LB1

Departure

Time 2026-05-06 15:19
Airport Ben Gurion International Airport (LLBG)

Arrival

Time N/A
Airport Cologne Bonn Airport (EDDK)
Time Latitude Longitude Altitude Speed Heading
2026-05-06 14:55 31.99488 34.90036 162 ft 0 kts 88°
2026-05-06 15:08 31.99488 34.90026 162 ft 2 kts 88°
2026-05-06 15:09 31.99487 34.90008 162 ft 2 kts 88°
2026-05-06 15:09 31.99487 34.89997 162 ft 1 kts 88°
2026-05-06 15:09 31.99483 34.89980 162 ft 2 kts 53°
2026-05-06 15:09 31.99473 34.89969 162 ft 2 kts 22°
2026-05-06 15:10 31.99458 34.89967 162 ft 2 kts 348°
2026-05-06 15:10 31.99451 34.89969 161 ft 1 kts 329°
2026-05-06 15:10 31.99447 34.89972 161 ft 0 kts 333°
2026-05-06 15:12 31.99448 34.89971 161 ft 1 kts 333°
2026-05-06 15:12 31.99489 34.89946 163 ft 10 kts 333°
2026-05-06 15:12 31.99538 34.89931 165 ft 5 kts 346°
2026-05-06 15:12 31.99604 34.89911 167 ft 12 kts 347°
2026-05-06 15:13 31.99687 34.89877 167 ft 17 kts 332°
2026-05-06 15:13 31.99812 34.89801 161 ft 21 kts 334°
2026-05-06 15:13 31.99939 34.89725 152 ft 19 kts 333°
2026-05-06 15:13 32.00059 34.89653 150 ft 19 kts 333°
2026-05-06 15:14 32.00181 34.89571 148 ft 19 kts 329°
2026-05-06 15:14 32.00270 34.89441 147 ft 25 kts 302°
2026-05-06 15:14 32.00359 34.89270 148 ft 23 kts 301°
2026-05-06 15:14 32.00437 34.89119 149 ft 20 kts 302°
2026-05-06 15:15 32.00518 34.88998 146 ft 18 kts 332°
2026-05-06 15:15 32.00626 34.89024 146 ft 20 kts 30°
2026-05-06 15:15 32.00763 34.89112 145 ft 22 kts 28°
2026-05-06 15:15 32.00898 34.89198 144 ft 21 kts 28°
2026-05-06 15:16 32.01020 34.89276 144 ft 19 kts 31°
2026-05-06 15:16 32.01131 34.89351 144 ft 17 kts 27°
2026-05-06 15:16 32.01230 34.89411 144 ft 14 kts 27°
2026-05-06 15:16 32.01315 34.89468 145 ft 16 kts 29°
2026-05-06 15:17 32.01461 34.89560 148 ft 24 kts 27°
2026-05-06 15:17 32.01604 34.89651 149 ft 22 kts 31°
2026-05-06 15:17 32.01725 34.89732 148 ft 18 kts 29°
2026-05-06 15:17 32.01817 34.89788 148 ft 9 kts 22°
2026-05-06 15:18 32.01845 34.89763 148 ft 9 kts 275°
2026-05-06 15:18 32.01841 34.89745 148 ft 1 kts 273°
2026-05-06 15:18 32.01834 34.89675 148 ft 11 kts 259°
2026-05-06 15:18 32.01808 34.89495 146 ft 44 kts 260°
2026-05-06 15:19 32.01721 34.88919 136 ft 96 kts 261°
2026-05-06 15:19 32.01572 34.87952 131 ft 143 kts 259°
2026-05-06 15:19 32.01368 34.86619 220 ft 179 kts 263°
2026-05-06 15:19 32.01159 34.85148 741 ft 184 kts 260°
2026-05-06 15:20 32.00861 34.83758 1492 ft 173 kts 258°
2026-05-06 15:20 32.00561 34.82329 1648 ft 190 kts 258°
2026-05-06 15:20 32.00227 34.80727 1819 ft 210 kts 258°
2026-05-06 15:20 31.99862 34.78995 2156 ft 224 kts 258°
2026-05-06 15:21 31.99473 34.77150 2494 ft 239 kts 258°
2026-05-06 15:21 31.99247 34.75172 2858 ft 251 kts 279°
2026-05-06 15:21 31.99735 34.73168 3304 ft 261 kts 291°
2026-05-06 15:21 32.00350 34.71154 4045 ft 262 kts 290°
2026-05-06 15:22 32.00965 34.69128 4735 ft 266 kts 290°
2026-05-06 15:22 32.01595 34.67079 5459 ft 268 kts 289°
2026-05-06 15:22 32.02237 34.65000 6185 ft 271 kts 289°
2026-05-06 15:22 32.02649 34.62873 6891 ft 272 kts 274°
2026-05-06 15:23 32.02770 34.60646 7636 ft 273 kts 274°
2026-05-06 15:23 32.02905 34.58445 8383 ft 274 kts 274°
2026-05-06 15:23 32.03033 34.56191 9101 ft 276 kts 274°
2026-05-06 15:23 32.03157 34.53975 9846 ft 276 kts 275°
2026-05-06 15:24 32.03281 34.51706 10513 ft 281 kts 274°
2026-05-06 15:24 32.03408 34.49339 10835 ft 298 kts 274°
2026-05-06 15:24 32.03540 34.46858 11197 ft 314 kts 274°
2026-05-06 15:24 32.03681 34.44218 11532 ft 330 kts 274°
2026-05-06 15:25 32.03841 34.41457 11874 ft 347 kts 274°
2026-05-06 15:25 32.04007 34.38559 12191 ft 364 kts 274°
2026-05-06 15:25 32.04179 34.35560 12855 ft 369 kts 274°
2026-05-06 15:25 32.04349 34.32572 13629 ft 370 kts 274°
2026-05-06 15:26 32.04522 34.29520 14366 ft 373 kts 274°
2026-05-06 15:26 32.04698 34.26503 15067 ft 375 kts 275°
2026-05-06 15:26 32.05175 34.23452 15702 ft 379 kts 286°
2026-05-06 15:26 32.06182 34.20581 16399 ft 381 kts 297°
2026-05-06 15:27 32.07524 34.17925 17011 ft 384 kts 299°
2026-05-06 15:27 32.08884 34.15198 17631 ft 387 kts 298°
2026-05-06 15:27 32.10277 34.12450 18236 ft 390 kts 298°
2026-05-06 15:27 32.11659 34.09715 18890 ft 393 kts 298°
2026-05-06 15:28 32.13062 34.06947 19511 ft 395 kts 298°
2026-05-06 15:28 32.14474 34.04160 20139 ft 398 kts 298°
2026-05-06 15:28 32.15883 34.01379 20709 ft 400 kts 298°
2026-05-06 15:28 32.17302 33.98542 21259 ft 402 kts 296°
2026-05-06 15:29 32.18521 33.95591 21790 ft 403 kts 292°
2026-05-06 15:29 32.19746 33.92596 22300 ft 406 kts 293°
2026-05-06 15:29 32.20965 33.89613 22824 ft 407 kts 293°
2026-05-06 15:29 32.22210 33.86591 23248 ft 411 kts 293°
2026-05-06 15:30 32.23461 33.83550 23684 ft 414 kts 293°
2026-05-06 15:30 32.24713 33.80510 24148 ft 416 kts 293°
2026-05-06 15:30 32.25987 33.77417 24598 ft 418 kts 293°
2026-05-06 15:30 32.27253 33.74340 24987 ft 421 kts 293°
2026-05-06 15:31 32.28539 33.71216 25439 ft 422 kts 293°
2026-05-06 15:31 32.29828 33.68080 25760 ft 426 kts 293°
2026-05-06 15:31 32.31118 33.64941 26142 ft 427 kts 293°
2026-05-06 15:32 32.33715 33.58612 26904 ft 430 kts 294°
2026-05-06 15:32 32.35013 33.55447 27244 ft 432 kts 294°
2026-05-06 15:32 32.36332 33.52224 27563 ft 434 kts 294°
2026-05-06 15:32 32.37642 33.49024 27831 ft 436 kts 294°
2026-05-06 15:33 32.38970 33.45774 28160 ft 437 kts 294°
2026-05-06 15:33 32.40286 33.42550 28408 ft 439 kts 294°
2026-05-06 15:33 32.41622 33.39276 28656 ft 441 kts 294°
2026-05-06 15:33 32.42942 33.36039 29013 ft 440 kts 294°
2026-05-06 15:34 32.44259 33.32806 29358 ft 439 kts 294°
2026-05-06 15:34 32.45576 33.29567 29723 ft 438 kts 294°
2026-05-06 15:34 32.46897 33.26318 30022 ft 438 kts 293°
2026-05-06 15:34 32.48217 33.23068 30362 ft 436 kts 294°
2026-05-06 15:35 32.49531 33.19829 30688 ft 435 kts 294°
2026-05-06 15:35 32.50845 33.16584 30912 ft 436 kts 294°
2026-05-06 15:35 32.52139 33.13391 31243 ft 434 kts 294°
2026-05-06 15:35 32.53437 33.10180 31448 ft 435 kts 294°
2026-05-06 15:36 32.54742 33.06953 31809 ft 432 kts 294°
2026-05-06 15:36 32.56039 33.03742 32100 ft 431 kts 294°
2026-05-06 15:36 32.57325 33.00554 32334 ft 430 kts 294°
2026-05-06 15:36 32.58602 32.97385 32595 ft 429 kts 294°
2026-05-06 15:37 32.59889 32.94190 32832 ft 428 kts 294°
2026-05-06 15:37 32.61160 32.91029 33089 ft 427 kts 294°
2026-05-06 15:37 32.62447 32.87826 33251 ft 428 kts 294°
2026-05-06 15:37 32.63717 32.84665 33496 ft 426 kts 294°
2026-05-06 15:38 32.64988 32.81499 33766 ft 425 kts 294°
2026-05-06 15:38 32.66261 32.78321 33944 ft 425 kts 294°
2026-05-06 15:38 32.67524 32.75171 34145 ft 424 kts 294°
2026-05-06 15:38 32.68782 32.72026 34301 ft 423 kts 294°
2026-05-06 15:39 32.70036 32.68890 34446 ft 423 kts 294°
2026-05-06 15:39 32.71304 32.65713 34590 ft 423 kts 294°
2026-05-06 15:39 32.72551 32.62590 34714 ft 424 kts 294°
2026-05-06 15:39 32.73818 32.59412 34863 ft 423 kts 294°
2026-05-06 15:40 32.75069 32.56273 35006 ft 423 kts 294°
2026-05-06 15:40 32.76329 32.53104 35171 ft 422 kts 294°
2026-05-06 15:40 32.77575 32.49973 35326 ft 421 kts 294°
2026-05-06 15:40 32.78829 32.46816 35421 ft 422 kts 294°
2026-05-06 15:41 32.80066 32.43697 35540 ft 421 kts 294°
2026-05-06 15:41 32.81330 32.40567 35678 ft 421 kts 297°
2026-05-06 15:41 32.82888 32.37624 35819 ft 421 kts 303°
2026-05-06 15:41 32.84569 32.34726 35895 ft 421 kts 302°
2026-05-06 15:42 32.86202 32.31887 36018 ft 422 kts 302°
2026-05-06 15:42 32.87876 32.28987 36159 ft 421 kts 302°
2026-05-06 15:42 32.89531 32.26120 36300 ft 421 kts 302°
2026-05-06 15:42 32.91180 32.23262 36377 ft 422 kts 302°
2026-05-06 15:43 32.92841 32.20385 36478 ft 422 kts 302°
2026-05-06 15:43 32.94516 32.17481 36568 ft 423 kts 302°
2026-05-06 15:43 32.97847 32.11704 36744 ft 424 kts 302°
2026-05-06 15:44 32.99525 32.08789 36881 ft 423 kts 302°
2026-05-06 15:44 33.01186 32.05902 36929 ft 424 kts 302°
2026-05-06 15:44 33.02830 32.03043 37033 ft 424 kts 302°
2026-05-06 15:44 33.04500 32.00137 37204 ft 422 kts 302°
2026-05-06 15:45 33.07815 31.94362 37425 ft 420 kts 302°
2026-05-06 15:45 33.09454 31.91505 37911 ft 412 kts 302°
2026-05-06 15:45 33.11049 31.88719 38002 ft 412 kts 302°
2026-05-06 15:46 33.12673 31.85881 38103 ft 408 kts 302°
2026-05-06 15:46 33.14258 31.83108 38091 ft 408 kts 302°
2026-05-06 15:46 33.17465 31.77493 38090 ft 407 kts 302°
2026-05-06 15:47 33.20641 31.71925 38092 ft 408 kts 302°
2026-05-06 15:47 33.23849 31.66294 38095 ft 408 kts 302°
2026-05-06 15:48 33.27017 31.60724 38086 ft 408 kts 302°
2026-05-06 15:48 33.30198 31.55122 38093 ft 407 kts 302°
2026-05-06 15:49 33.33369 31.49528 38095 ft 407 kts 302°
2026-05-06 15:49 33.36558 31.43896 38092 ft 407 kts 302°